Location: Unspecified
(0.0000°N, 0.0000°E)
Time: 12:20:45
(UTC+00:00)

Hubble Space Telescope - Pass Details

Date: 09 May 2026
Orbit: 473 x 476 km, 28.5° (Epoch: 18 May)

Event Time Altitude Azimuth Distance (km) Brightness Sun altitude
Rises 18:19:00 0° 323° (NW) 2,495 5.2 -5.4°
Reaches altitude 10° 18:21:37 10° 341° (NNW) 1,621 3.8 -6.0°
Maximum altitude 18:24:23 20° 29° (NNE) 1,150 2.4 -6.7°
Drops below altitude 10° 18:27:10 10° 77° (ENE) 1,626 2.7 -7.3°
Enters shadow 18:27:50 - 83° (E) 1,831 2.9 -7.5°
